EA3FQO-2 Weather Reports


Display with metric or nautical units.
time (UTC)temp
F
wind
direction
speed
MPH
gust
MPH
rain 1hr
in
rain 24hr
in
rain mn
in
humidity
%
barometer
mb
20260902124504 92 76 1.0 3.0 0.00 0.00 0.00 25 1016.6
20260902123004 92 152 2.0 5.0 0.00 0.00 0.00 26 1016.6
20260902121504 92 28 0.0 3.0 0.00 0.00 0.00 26 1016.8
20260902120004 90 197 0.0 3.0 0.00 0.00 0.00 28 1016.9
20260902114504 90 321 0.0 2.0 0.00 0.00 0.00 30 1016.9
20260902113004 90 14 0.0 2.0 0.00 0.00 0.00 30 1016.8
20260902111504 90 28 0.0 2.0 0.00 0.00 0.00 30 1017.0
20260902110005 90 52 0.0 1.0 0.00 0.00 0.00 30 1017.1
20260902103004 90 340 0.0 1.0 0.00 0.00 0.00 32 1017.3
20260902101504 88 0 0.0 0.0 0.00 0.00 0.00 33 1017.5
20260902100004 88 0 0.0 0.0 0.00 0.00 0.00 34 1017.6
20260902094506 86 270 0.0 1.0 0.00 0.00 0.00 34 1017.6
20260902093006 85 306 0.0 1.0 0.00 0.00 0.00 34 1017.7
20260902091506 84 326 0.0 2.0 0.00 0.00 0.00 39 1017.7
20260902090006 82 135 0.0 2.0 0.00 0.00 0.00 43 1017.6
20260902084507 80 135 0.0 2.0 0.00 0.00 0.00 53 1017.6
20260902083006 77 0 0.0 0.0 0.00 0.00 0.00 59 1017.7
20260902081506 74 0 0.0 0.0 0.00 0.00 0.00 69 1017.5
20260902080006 68 0 0.0 0.0 0.00 0.00 0.00 85 1017.4
20260902074507 65 0 0.0 0.0 0.00 0.00 0.00 93 1017.4
20260902073006 63 0 0.0 0.0 0.00 0.00 0.00 99 1017.4
20260902071506 62 0 0.0 0.0 0.00 0.00 0.00 99 1017.3
20260902070007 60 0 0.0 0.0 0.00 0.00 0.00 99 1017.2
20260902064506 59 0 0.0 0.0 0.00 0.00 0.00 99 1017.2
20260902063006 58 0 0.0 0.0 0.00 0.00 0.00 99 1017.3
20260902054505 57 0 0.0 0.0 0.00 0.00 0.00 99 1017.0
20260902053006 57 0 0.0 0.0 0.00 0.00 0.00 99 1016.8
20260902051506 57 0 0.0 0.0 0.00 0.00 0.00 99 1016.7
20260902050008 57 0 0.0 0.0 0.00 0.00 0.00 99 1016.6
20260902044505 57 0 0.0 0.0 0.00 0.00 0.00 98 1016.5
20260902040006 58 0 0.0 0.0 0.00 0.00 0.00 98 1016.6
20260902033005 58 0 0.0 0.0 0.00 0.00 0.00 98 1016.7
20260902031506 58 0 0.0 0.0 0.00 0.00 0.00 98 1016.6
20260902030006 59 0 0.0 0.0 0.00 0.00 0.00 98 1016.7
20260902024505 59 0 0.0 0.0 0.00 0.00 0.00 98 1016.6
20260902023005 59 0 0.0 0.0 0.00 0.00 0.00 98 1016.7
20260902021505 59 0 0.0 0.0 0.00 0.00 0.00 98 1016.6
20260902020006 59 0 0.0 0.0 0.00 0.00 0.00 98 1016.5
20260902014505 59 0 0.0 0.0 0.00 0.00 0.00 97 1016.5
20260902013005 60 0 0.0 0.0 0.00 0.00 0.00 97 1016.5
20260902011506 60 0 0.0 0.0 0.00 0.00 0.00 97 1016.5
20260902010005 60 0 0.0 0.0 0.00 0.00 0.00 96 1016.6
20260902004505 60 0 0.0 0.0 0.00 0.00 0.00 96 1016.7
20260902003005 61 0 0.0 0.0 0.00 0.00 0.00 96 1016.6
20260902000006 61 0 0.0 0.0 0.00 0.00 0.00 95 1016.5
20260901234505 61 0 0.0 0.0 0.00 0.00 0.00 95 1016.4
20260901233005 61 0 0.0 0.0 0.00 0.00 0.00 94 1016.5
20260901231505 61 0 0.0 0.0 0.00 0.00 0.00 93 1016.5
20260901230006 62 0 0.0 0.0 0.00 0.00 0.00 92 1016.6
20260901224506 62 0 0.0 0.0 0.00 0.00 0.00 91 1016.5
20260901223006 62 0 0.0 0.0 0.00 0.00 0.00 91 1016.4
20260901221505 62 0 0.0 0.0 0.00 0.00 0.00 90 1016.5
20260901220007 62 0 0.0 0.0 0.00 0.00 0.00 90 1016.1
20260901214505 63 0 0.0 0.0 0.00 0.00 0.00 89 1016.0
20260901213005 63 0 0.0 0.0 0.00 0.00 0.00 87 1016.1
20260901211505 64 0 0.0 0.0 0.00 0.00 0.00 83 1016.1
20260901210005 64 0 0.0 0.0 0.00 0.00 0.00 81 1016.0
20260901204504 65 0 0.0 0.0 0.00 0.00 0.00 80 1016.1
20260901201505 66 0 0.0 0.0 0.00 0.00 0.00 78 1015.9
20260901194505 67 0 0.0 0.0 0.00 0.00 0.00 74 1015.7
20260901193005 68 0 0.0 0.0 0.00 0.00 0.00 73 1015.5
20260901191505 69 0 0.0 0.0 0.00 0.00 0.00 71 1015.3
20260901190005 70 0 0.0 0.0 0.00 0.00 0.00 69 1015.3
20260901184504 72 314 0.0 1.0 0.00 0.00 0.00 66 1015.0
20260901183005 73 56 0.0 1.0 0.00 0.00 0.00 62 1014.9
20260901180004 76 48 0.0 2.0 0.00 0.00 0.00 59 1014.7
20260901174505 78 6 0.0 1.0 0.00 0.00 0.00 56 1014.6
20260901173005 80 30 0.0 2.0 0.00 0.00 0.00 54 1014.7
20260901171505 81 301 0.0 1.0 0.00 0.00 0.00 52 1014.7
20260901170005 83 10 0.0 2.0 0.00 0.00 0.00 46 1014.6
20260901164504 84 347 1.0 3.0 0.00 0.00 0.00 44 1014.3
20260901161505 86 14 3.0 6.0 0.00 0.00 0.00 43 1014.7
20260901160004 84 21 0.0 2.0 0.00 0.00 0.00 47 1014.4
20260901154504 83 341 0.0 3.0 0.00 0.00 0.00 47 1014.2
20260901153005 85 60 2.0 6.0 0.00 0.00 0.00 45 1014.1
20260901151504 87 27 1.0 4.0 0.00 0.00 0.00 42 1014.2
20260901150004 89 334 0.0 4.0 0.00 0.00 0.00 40 1014.5
20260901144504 88 21 0.0 3.0 0.00 0.00 0.00 40 1014.3
20260901143005 85 43 0.0 2.0 0.00 0.00 0.00 42 1014.5
20260901140004 84 37 0.0 3.0 0.00 0.00 0.00 43 1015.1
20260901134504 85 18 0.0 3.0 0.00 0.00 0.00 44 1014.8
20260901131504 85 5 0.0 3.0 0.00 0.00 0.00 43 1015.4
20260901130005 87 35 1.0 5.0 0.00 0.00 0.00 41 1015.4